[[{"header":{"parameterUnit":"m.s-1","parameterCategory":1,"la1":30.2991,"la2":30.254,"lo1":-89.0895,"lo2":-89.0444,"dy":0.0017,"dx":0.0017,"nx":28,"ny":28,"refTime":"2025-11-16T09:00:00:Z","depth":0,"parameterNumber":2,"parameterNumberName":"U-component_of_WINDS"},"data":[0,0,0,0,0,0,0,0,0,0,0,0,0,0,0,0,0,0,0,0,0,0,0,0,0,0,0,0,0,0,0,0,0,0,0,0,0,0,0,0,0,0,0,0,0,0,0,0,0,0,0,0,0,0,0,0,0,0,0.9602,0.9603,0,0.9698,0.9699,0.97,0.9707,0.9706,0.9705,0.9704,0.9808,0.9811,0.9815,0,0,0,0,0,0,0,0,0,0,0,0,0,0.943,0.9433,0.9602,0.9603,0.9605,0.9698,0.9699,0.9701,0.9707,0.9706,0.9705,0.9704,0.9806,0.9811,0.9815,0,0,0,0,0,0,0,0,0,0,0,0,0,0.9514,0.9434,0.9602,0.9619,0.9622,0.9698,0.9699,0.9701,0.9708,0.9706,0.9704,0.9703,0.9805,0.981,0.9816,0.9883,0,0,0.9833,0.9836,0,0,0,0,0,0,0,0,0.9509,0.952,0.9615,0.9618,0.9621,0.9689,0.9677,0.9762,0.9708,0.9675,0.9704,0.9702,0.977,0.9778,0.98,0.9888,0.9892,0.9834,0.9837,0.9839,0.9841,0,0,0,0,0,0,0,0.9503,0.9516,0.964,0.9617,0.962,0.9624,0.9634,0.9693,0.9731,0.9678,0.9679,0.969,0.9771,0.9794,0.9802,0.9894,0.9833,0.9838,0.9842,0.9844,1.0044,1.0045,0,0,0,0,0,0,0.9493,0.9511,0.9637,0.9643,0.956,0.9628,0.9639,0.9669,0.973,0.9738,0.9691,0.969,0.9786,0.9796,0.9806,0.989,0.9839,0.9845,0.9848,1.0042,1.0044,1.0046,0,0,0,0,0,0,0.949,0.9504,0.9633,0.9577,0.9594,0.9633,0.9666,0.9672,0.9695,0.974,0.9747,0.9708,0.9785,0.9798,0.9864,0.9893,0.9847,0.9852,1.0039,1.0042,1.0045,1.0056,0,0,0,0,0,0,0.9485,0.9503,0.9528,0.9578,0.9597,0.9688,0.9668,0.9675,0.9704,0.9703,0.9757,0.9765,0.9784,0.9855,0.9869,0.99,0.9857,1.0037,1.0041,1.0044,1.0054,1.0059,1.0064,0,0,0,0,0,0.9478,0.9528,0.9529,0.9544,0.9628,0.969,0.9701,0.9721,0.9706,0.9732,0.9761,0.9763,0.9888,0.9862,0.9878,0.9911,1.0035,1.004,1.0044,1.0051,1.0058,1.0064,0,0,0,0,0,0,0.9482,0.9535,0.9536,0.9603,0.9642,0.9691,0.9724,0.9728,0.9772,0.977,0.9795,0.9807,0.9872,0.9898,0.9869,0.998,0.996,0.9968,0.996,0.9967,0.9972,0.9965,0.9861,0,0,0,0,0,0.949,0.9534,0.9578,0.9633,0.9652,0.9685,0.9712,0.9724,0.9766,0.9783,0.9816,0.9858,0.9907,0.9939,0.9986,1.0057,1.007,1.0088,1.0093,1.0097,1.0104,1.0145,1.0154,1.006,1.006,1.006,0,0,0.9508,0.9543,0.9569,0.9635,0.9666,0.9712,0.9698,0.9748,0.9783,0.9791,0.9855,0.9881,0.993,0.9999,1.0031,1.0022,1.0133,1.0103,1.0106,1.011,1.015,1.0159,1.0167,1.0063,1.0063,1.0062,0,0,0.9565,0.9595,0.9644,0.9675,0.9722,0.9743,0.9755,0.9804,0.9821,0.9885,0.9892,0.9936,1.0018,1.0053,1.0081,1.0152,1.0155,1.0167,1.0194,1.0234,1.0241,1.0248,1.0274,1.0283,1.0173,1.0173,1.0173,0,0.9582,0.965,0.9669,0.9718,0.9748,0.9756,0.9807,0.9837,0.9898,0.9919,0.9908,1.0012,1.0046,1.0123,1.014,1.0163,1.0179,1.0161,1.0238,1.0245,1.0252,1.0277,1.0287,1.0174,1.0174,1.0174,1.0174,0,0.9669,0.9717,0.9751,0.9808,0.9841,0.9891,0.992,0.9952,0.9961,0.9984,1.005,1.009,1.0146,1.0166,1.0176,1.0245,1.0239,1.0233,1.0214,1.0262,1.0286,1.0295,1.0176,1.0175,1.0175,1.0175,0,0,0.9731,0.9797,0.9809,0.9835,0.9888,0.9926,0.9977,1.003,1.0058,1.01,1.0144,1.0215,1.021,1.0242,1.0257,1.0291,1.0346,1.0282,1.0283,1.0293,1.0426,1.043,1.044,1.0348,1.035,1.0352,1.0422,0,0.9793,0.9882,0.9901,0.9979,1.0024,1.0032,1.0077,1.0116,1.0139,1.0182,1.0208,1.0258,1.0247,1.0267,1.0302,1.0331,1.0373,1.0327,1.0392,1.0394,1.0379,1.0453,1.0457,1.0522,1.0431,1.0433,1.0434,0,0.9878,0.9921,1.0002,1.0049,1.0069,1.0109,1.0159,1.02,1.0244,1.0259,1.0295,1.0306,1.0362,1.0339,1.0417,1.0385,1.0413,1.0432,1.0435,1.0443,1.0417,1.0463,1.0542,1.0552,1.0449,1.0448,1.0447,0,0.9915,0.9993,1.0052,1.0074,1.0131,1.0159,1.0184,1.0226,1.0257,1.0302,1.0323,1.0374,1.0403,1.0443,1.0469,1.045,1.0545,1.0525,1.056,1.0559,1.058,1.0578,1.0666,1.0597,1.0597,1.0597,1.0597,0,0.9984,1.0034,1.0069,1.0106,1.0163,1.0185,1.0241,1.0267,1.0304,1.0347,1.0359,1.0399,1.043,1.0475,1.0496,1.0558,1.0571,1.0585,1.059,1.0584,1.0583,1.0603,1.06,1.0599,1.0599,1.0598,1.0598,0,1.0035,1.006,1.0125,1.0173,1.0187,1.0226,1.0268,1.0305,1.0329,1.0383,1.0397,1.0435,1.0489,1.0518,1.0586,1.06,1.067,1.0672,1.0654,1.0656,1.069,1.0687,1.0794,1.081,1.073,1.0731,1.0732,0,1.0076,1.0115,1.0166,1.0195,1.022,1.0267,1.0298,1.0322,1.0354,1.0408,1.0439,1.0493,1.0538,1.0624,1.0659,1.0711,1.0716,1.075,1.0724,1.0717,1.0717,1.0714,1.0719,1.0754,1.0755,1.0756,1.0756,0,1.0148,1.0159,1.0203,1.0251,1.0288,1.0328,1.0367,1.0391,1.0422,1.0458,1.0512,1.0547,1.0616,1.0671,1.0726,1.0754,1.0761,1.0764,1.0775,1.077,1.0758,1.0765,1.0667,1.0761,1.0761,1.076,1.076,1.076,1.0197,1.0231,1.0273,1.0322,1.0353,1.039,1.0427,1.0455,1.05,1.0557,1.0569,1.0627,1.0672,1.0747,1.0776,1.0823,1.0817,1.0833,1.0837,1.0841,1.0842,1.075,1.0834,1.0834,1.0833,1.0833,1.0833,0,1.0269,1.0296,1.0341,1.0395,1.0434,1.0435,1.0479,1.0512,1.0562,1.0603,1.0646,1.0709,1.0762,1.0801,1.0856,1.0886,1.0891,1.09,1.0898,1.0904,1.0845,1.083,1.0895,1.0895,1.0895,1.0895,1.0895,1.0895,1.0312,1.0371,1.0387,1.0462,1.049,1.0545,1.057,1.0605,1.0637,1.0707,1.075,1.0774,1.0815,1.0873,1.0922,1.0932,1.0952,1.0961,1.0972,1.0915,1.0909,1.0902,1.0888,1.0965,1.0965,1.1028,1.1028,1.1029]},{"header":{"parameterUnit":"m.s-1","parameterCategory":1,"la1":30.2991,"la2":30.254,"lo1":-89.0895,"lo2":-89.0444,"dy":0.0017,"dx":0.0017,"nx":28,"ny":28,"refTime":"2025-11-16T09:00:00:Z","depth":0,"parameterNumber":3,"parameterNumberName":"V-component_of_WINDS"},"data":[0,0,0,0,0,0,0,0,0,0,0,0,0,0,0,0,0,0,0,0,0,0,0,0,0,0,0,0,0,0,0,0,0,0,0,0,0,0,0,0,0,0,0,0,0,0,0,0,0,0,0,0,0,0,0,0,0,0,0.0017,0.0017,0,-0.0024,-0.0024,-0.0025,-0.0053,-0.0053,-0.0054,-0.0054,-0.0097,-0.0098,-0.0099,0,0,0,0,0,0,0,0,0,0,0,0,0,0.007,0.0069,0.0017,0.0017,0.0016,-0.0024,-0.0024,-0.0025,-0.0053,-0.0053,-0.0054,-0.0054,-0.0097,-0.0098,-0.0099,0,0,0,0,0,0,0,0,0,0,0,0,0,0.004,0.0069,0.0017,-0.0003,-0.0005,-0.0024,-0.0024,-0.0025,-0.0053,-0.0053,-0.0054,-0.0054,-0.0096,-0.0098,-0.0099,-0.0101,0,0,-0.0103,-0.0104,0,0,0,0,0,0,0,0,0.0042,0.0038,0.0001,-0.0001,-0.0004,-0.0034,-0.0022,-0.0051,-0.0053,-0.0035,-0.0054,-0.0054,-0.0076,-0.0079,-0.0086,-0.0103,-0.0105,-0.0104,-0.0104,-0.0105,-0.0105,0,0,0,0,0,0,0,0.0044,0.0039,0.0001,0.0,-0.0003,-0.001,-0.0015,-0.0027,-0.0053,-0.0036,-0.0039,-0.0043,-0.0077,-0.0084,-0.0087,-0.0106,-0.0104,-0.0105,-0.0106,-0.0106,-0.0128,-0.0128,0,0,0,0,0,0,0.0049,0.0041,0.0002,-0.0,0.0019,-0.0011,-0.0016,-0.0024,-0.0053,-0.0058,-0.0043,-0.0044,-0.0082,-0.0085,-0.0089,-0.0093,-0.0105,-0.0106,-0.0107,-0.0128,-0.0128,-0.0127,0,0,0,0,0,0,0.005,0.0046,0.0004,0.002,0.0014,-0.0011,-0.002,-0.0024,-0.0032,-0.0058,-0.0062,-0.0045,-0.0082,-0.0087,-0.0098,-0.0095,-0.0107,-0.0108,-0.0128,-0.0128,-0.0128,-0.0103,0,0,0,0,0,0,0.0052,0.0046,0.0046,0.002,0.0013,-0.0004,-0.002,-0.0025,-0.0034,-0.0036,-0.0061,-0.0066,-0.0083,-0.0096,-0.0099,-0.0098,-0.0109,-0.0129,-0.0128,-0.0128,-0.0104,-0.0102,-0.01,0,0,0,0,0,0.0054,0.0054,0.0046,0.0041,0.0012,-0.0004,-0.0008,-0.0027,-0.0034,-0.0035,-0.0052,-0.0065,-0.0095,-0.0097,-0.0101,-0.01,-0.0129,-0.0128,-0.0128,-0.0105,-0.0102,-0.01,0,0,0,0,0,0,0.008,0.005,0.0041,0.0033,0.0017,-0.0009,-0.0011,-0.0023,-0.0038,-0.0039,-0.0063,-0.0068,-0.0077,-0.009,-0.0091,-0.0104,-0.0114,-0.0114,-0.0095,-0.0092,-0.009,-0.0087,-0.0111,0,0,0,0,0,0.0085,0.0075,0.0049,0.0045,0.0037,0.0015,0.0007,-0.0006,-0.0023,-0.003,-0.0048,-0.0064,-0.0078,-0.0086,-0.0099,-0.0106,-0.0112,-0.0107,-0.0105,-0.0103,-0.0103,-0.0108,-0.0106,-0.0125,-0.0125,-0.0125,0,0,0.0094,0.0077,0.0072,0.0049,0.0036,0.0026,0.0009,-0.0001,-0.0009,-0.0032,-0.0044,-0.0057,-0.0077,-0.0086,-0.0091,-0.0097,-0.0099,-0.0102,-0.01,-0.0102,-0.0107,-0.0105,-0.0103,-0.0125,-0.0125,-0.0125,0,0,0.0107,0.0093,0.0088,0.0075,0.0054,0.0039,0.0038,0.0014,0.0004,-0.0008,-0.0025,-0.0035,-0.0057,-0.0071,-0.0081,-0.0073,-0.0086,-0.0077,-0.0065,-0.007,-0.0068,-0.0067,-0.0064,-0.0063,-0.0077,-0.0077,-0.0077,0,0.0122,0.0106,0.0086,0.0078,0.0068,0.0047,0.0041,0.0029,0.0005,-0.0001,-0.0007,-0.0036,-0.0051,-0.0063,-0.0061,-0.0068,-0.0071,-0.0074,-0.0067,-0.0066,-0.0065,-0.0062,-0.0061,-0.0076,-0.0076,-0.0076,-0.0076,0,0.0125,0.0115,0.0113,0.0091,0.0081,0.0074,0.0052,0.0045,0.0032,0.0018,0.0006,-0.0013,-0.0031,-0.0035,-0.0047,-0.0049,-0.0052,-0.0062,-0.0073,-0.0061,-0.0059,-0.0059,-0.0074,-0.0074,-0.0075,-0.0075,0,0,0.0153,0.0121,0.012,0.011,0.0086,0.0078,0.0069,0.0052,0.0046,0.003,0.0022,0.0004,-0.0005,-0.0016,-0.003,-0.0034,-0.0027,-0.0044,-0.0045,-0.004,-0.003,-0.0023,-0.0021,-0.0036,-0.0036,-0.0036,-0.0029,0,0.0162,0.0147,0.0129,0.0119,0.0109,0.0089,0.0081,0.0066,0.0052,0.0041,0.0025,0.0013,0.0001,-0.0005,-0.001,-0.0027,-0.0025,-0.0028,-0.0044,-0.0044,-0.0038,-0.002,-0.0012,-0.0005,-0.0028,-0.0028,-0.0028,0,0.0171,0.0157,0.0147,0.0124,0.0119,0.0113,0.0096,0.0086,0.0067,0.0057,0.0045,0.003,0.002,0.001,-0.0005,-0.0006,-0.0014,-0.0023,-0.0023,-0.0025,-0.0035,-0.0022,-0.0003,-0.0001,-0.0027,-0.0027,-0.0027,0,0.0193,0.0171,0.0162,0.0154,0.0127,0.0123,0.0111,0.0093,0.0084,0.0069,0.0063,0.0047,0.0038,0.0025,0.0006,0.0001,-0.0007,-0.0018,-0.0016,-0.0015,-0.0016,-0.0016,0.0002,-0.0021,-0.0021,-0.0021,-0.0021,0,0.0205,0.0199,0.0171,0.0166,0.0159,0.0138,0.0131,0.0118,0.0102,0.0093,0.0074,0.0066,0.0041,0.003,0.0014,0.0004,0.0001,-0.0008,-0.0012,-0.0006,-0.0005,-0.0012,-0.0013,-0.0021,-0.0021,-0.0021,-0.0021,0,0.0228,0.0209,0.0198,0.0173,0.0167,0.0163,0.0142,0.0135,0.012,0.011,0.0106,0.0082,0.0068,0.0048,0.0027,0.0017,0.0009,0.0003,0.0016,0.0013,0.0017,0.0017,0.0032,0.0032,0.0009,0.0009,0.0009,0,0.0237,0.0232,0.0207,0.02,0.019,0.0179,0.0169,0.0148,0.014,0.0118,0.0115,0.0099,0.0086,0.0064,0.0045,0.0029,0.0022,0.0028,0.002,0.0026,0.0022,0.0023,0.0022,0.003,0.0031,0.0031,0.0031,0,0.0255,0.0246,0.0234,0.0218,0.0208,0.0195,0.0181,0.0176,0.0152,0.0142,0.0128,0.0118,0.0097,0.0082,0.0064,0.0051,0.0037,0.0034,0.0034,0.004,0.0048,0.0043,0.0021,0.0034,0.0034,0.0034,0.0033,0.0033,0.0271,0.0266,0.0248,0.0235,0.0222,0.0209,0.0202,0.0187,0.0175,0.0157,0.0145,0.0131,0.0113,0.0087,0.0075,0.0063,0.0057,0.0057,0.0057,0.0057,0.0059,0.0049,0.006,0.006,0.006,0.006,0.0059,0,0.0288,0.0276,0.0264,0.0245,0.0235,0.0223,0.0207,0.0199,0.0187,0.0171,0.0159,0.0142,0.0127,0.0107,0.0091,0.0085,0.0079,0.0082,0.0082,0.0079,0.0065,0.0067,0.0088,0.0088,0.0088,0.0088,0.0088,0.0088,0.0296,0.0287,0.0276,0.026,0.0247,0.0234,0.0226,0.0214,0.0201,0.0184,0.0172,0.0159,0.0141,0.0123,0.0109,0.0103,0.0098,0.0103,0.0096,0.0083,0.008,0.0078,0.008,0.0102,0.0102,0.011,0.011,0.011]}]]